Regional Weather Roundup
Issued by NWS

Home | Current Version | Previous Version | Text Only | Print | Product List | Glossary Off
Versions: 1 2 3 4 5 6 7 8 9 10 11 12 13 14 15 16 17 18 19 20 21 22 23 24 25 26 27 28 29 30 31 32 33 34 35 36 37 38 39 40 41 42 43 44 45 46 47 48 49 50

000
ASUS43 KLMK 050302
RWRKY
KENTUCKY REGIONAL WEATHER ROUNDUP
NATIONAL WEATHER SERVICE LOUISVILLE KY
1000 PM EST SUN DEC 04 2016

NOTE "FAIR" INDICATES FEW OR NO CLOUDS BELOW 12,000 FEET
WITH NO SIGNIFICANT WEATHER AND/OR OBSTRUCTIONS TO VISIBILITY.

KYZ001>023-026-027-061>063-070>075-050400-
WESTERN AND SOUTH CENTRAL KENTUCKY

CITY           SKY/WX    TMP DP  RH WIND       PRES   REMARKS
PADUCAH        CLOUDY    43  35  73 NW9       30.03R
HENDERSON      CLOUDY    41  34  75 NW8       30.02R
OWENSBORO      CLOUDY    42  38  85 W13       30.02R
HOPKINSVILLE   CLOUDY    45  44  97 W9        30.01S
BOWLING GREEN  CLOUDY    47  43  86 W9        30.01R
GLASGOW        NOT AVBL
$$

KYZ024-025-028>034-038-045-046-053-050400-
NORTH CENTRAL KENTUCKY

CITY           SKY/WX    TMP DP  RH WIND       PRES   REMARKS
LOUISVILLE/SDF CLOUDY    46  41  82 W10       29.95R
LOUISVILLE/LOU CLOUDY    46  41  82 W10       29.95R
FORT KNOX      CLOUDY    44  42  92 W13       29.94R
$$

KYZ035>037-039>044-047>052-055>060-089>105-050400-
NORTHEAST KENTUCKY

CITY           SKY/WX    TMP DP  RH WIND       PRES   REMARKS
LEXINGTON      CLOUDY    46  43  89 SW10      29.93S
COVINGTON      CLOUDY    44  42  93 W13G21    29.88R
FRANKFORT      CLOUDY    46  41  82 SW12      29.92S
$$

KYZ054-064>069-076>088-106>120-050400-
SOUTHEAST KENTUCKY

CITY           SKY/WX    TMP DP  RH WIND       PRES   REMARKS
JACKSON        LGT RAIN  44  43  96 SW5       29.94R FOG
LONDON         LGT RAIN  46  44  93 SW6       29.97R
SOMERSET       NOT AVBL
MIDDLESBORO    CLOUDY    45  45 100 CALM      29.99S FOG
MONTICELLO     CLOUDY    47  45  93 W16       30.00R
$$





USA.gov is the U.S. government's official web portal to all federal, state and local government web resources and services.